Theta_e
320 321 321 322 324 324 323 322 322 323 324 324 323 324 324 325 326 328 329 328 327 327 328 326 325 324 321 318 317 316 316 319 322 321 323 323 322 320 322 321 322 322 321 324
322 322 321 323 324 321 321 321 322 324 324 322 322 324 324 324 327 327 329 328 328 327 327 327 324 322 318 317 320 322 323 324 324 322 322 321 319 319 321 323 324 323 324 324
322 322 323 323 323 322 322 323 323 324 324 324 324 324 322 324 326 327 329 329 329 328 327 327 325 322 321 320 321 324 325 326 323 324 325 323 322 321 322 324 325 322 323 328
322 322 323 323 323 323 323 323 324 323 323 324 324 326 324 323 324 327 328 330 326 327 327 327 327 326 323 323 324 325 326 328 327 326 326 324 323 322 323 324 325 324 322 327
321 322 322 323 322 322 323 323 324 324 324 325 325 326 324 324 324 326 327 329 328 328 326 328 327 328 325 325 327 326 326 327 326 325 328 325 323 322 322 323 326 326 323 327
321 321 321 321 323 322 322 323 323 323 325 327 325 325 325 324 323 324 326 327 329 330 328 328 328 327 329 328 327 329 328 328 327 329 326 328 326 324 325 327 326 326 325 322
320 320 321 321 322 322 322 324 326 330 329 330 326 326 324 325 324 323 324 326 328 328 330 329 329 327 327 328 328 329 329 328 329 330 330 327 328 326 326 326 326 326 326 325
321 321 321 321 322 323 323 324 329 333 332 329 325 323 320 323 322 322 322 323 325 326 329 328 328 330 328 327 329 328 329 328 329 329 331 330 327 329 328 326 328 326 326 325
322 321 320 322 321 322 324 324 325 328 329 332 326 325 323 322 321 321 321 322 324 325 325 328 329 327 329 329 329 329 329 329 329 330 330 331 331 329 329 329 329 327 326 324
322 323 321 321 322 321 322 324 326 326 329 329 323 323 326 323 322 321 321 322 322 324 325 326 327 329 328 328 329 329 330 331 330 330 330 330 331 331 330 330 328 325 325 325
321 323 323 322 321 321 322 323 326 325 325 328 329 326 324 323 321 322 322 321 321 323 325 325 326 327 330 330 329 329 330 331 332 331 331 330 332 331 330 330 327 326 324 323
321 322 323 322 321 321 322 323 325 328 326 328 330 328 324 324 323 322 322 321 321 321 323 325 325 325 327 330 332 332 331 332 332 331 331 331 332 329 329 328 327 324 324 322
321 322 323 323 322 322 322 322 323 324 325 327 330 326 324 323 322 321 321 321 320 321 321 324 326 326 325 327 330 331 333 333 333 332 331 330 331 329 327 326 325 323 321 319
319 323 323 325 324 323 322 321 322 325 328 327 327 324 324 323 322 322 322 321 322 321 321 322 325 326 327 327 328 329 331 331 332 331 330 330 330 328 325 323 322 321 320 318
321 324 323 321 321 321 321 322 322 322 323 325 327 323 322 322 321 322 321 322 322 321 321 321 322 327 329 329 329 329 330 330 330 329 329 328 327 326 323 321 320 319 318 315
319 322 322 323 321 321 321 322 322 321 321 321 322 322 321 320 320 321 320 320 321 321 323 322 321 328 331 332 331 330 329 329 328 328 327 326 325 323 320 319 318 316 313 311
321 321 321 323 322 320 320 321 321 320 321 320 321 322 321 322 321 321 320 320 320 322 324 323 323 331 331 331 330 329 326 325 324 324 324 323 320 319 317 315 312 311 310 309
321 322 321 324 322 324 321 321 321 321 320 320 320 321 321 321 320 320 321 320 321 323 324 324 328 329 328 327 326 323 320 320 320 320 319 318 317 314 312 311 310 309 307 305
319 323 323 324 324 322 321 321 321 321 321 321 320 321 321 320 321 321 320 319 321 322 323 325 325 325 323 323 321 318 316 315 314 314 313 311 310 310 309 308 307 305 303 302
317 320 324 325 324 325 323 321 320 321 322 321 321 322 322 321 324 322 319 320 322 321 321 322 322 321 320 318 316 314 312 310 309 308 307 307 309 309 307 304 303 302 301 300
320 321 323 323 324 324 321 320 320 322 323 321 321 321 321 322 323 320 319 321 320 319 319 319 318 317 317 315 314 313 311 308 306 306 307 307 305 304 303 302 301 299 297 296
322 322 324 323 324 325 321 320 320 321 321 321 321 321 321 321 320 319 318 318 317 316 316 316 315 314 313 312 311 310 308 306 305 304 304 303 302 301 300 299 296 295 295 294
316 320 324 323 324 324 322 320 320 320 321 322 322 322 322 321 319 318 317 316 315 315 315 314 314 312 311 311 310 308 306 305 303 301 300 299 298 296 296 296 294 292 291 290
317 318 317 316 320 322 322 321 320 320 320 321 321 321 321 321 319 317 316 315 314 313 313 312 311 311 310 309 308 306 303 301 300 299 297 296 294 293 291 290 289 290 289 289
318 317 317 317 317 317 316 318 320 320 320 320 320 319 319 321 318 316 315 313 312 311 311 310 310 309 307 306 304 301 300 300 298 296 294 292 291 290 289 289 289 288 288 286
315 316 320 324 318 319 320 318 319 320 320 322 320 319 318 319 318 315 313 312 311 310 309 308 307 305 302 300 299 298 297 296 294 292 290 290 289 288 288 287 287 286 285 284
Wind_Speed
21 12 15 20 19 20 12 14 16 5 17 6 10 6 12 8 8 11 15 15 19 19 24 24 24 19 26 38 41 32 28 23 23 26 25 23 27 28 27 32 30 26 24 23
16 18 19 21 18 9 12 11 15 9 9 2 10 6 9 10 8 14 16 15 19 19 21 24 29 30 36 38 29 22 17 20 23 23 22 24 23 22 21 21 26 24 24 24
20 18 19 19 8 9 10 13 14 11 6 12 13 13 7 14 17 17 20 20 22 24 27 29 32 34 33 30 29 27 28 20 19 19 23 23 21 21 22 26 27 25 24 22
21 22 12 11 10 13 13 9 14 9 10 7 8 9 15 12 12 12 20 26 25 25 32 32 33 36 37 31 26 28 29 29 20 23 27 26 26 27 26 26 26 23 26 24
21 21 18 14 15 15 13 8 9 11 12 14 9 10 4 7 18 16 13 26 30 30 30 37 37 37 40 35 33 29 30 27 28 24 24 27 24 23 24 25 26 24 23 25
21 21 19 21 14 14 14 13 10 12 12 10 14 8 6 4 11 15 19 23 29 36 32 32 35 35 37 36 36 34 31 30 28 32 27 24 25 25 24 24 26 28 26 26
21 23 18 15 18 14 11 10 7 6 7 7 3 9 5 16 14 2 2 24 26 31 35 37 37 38 38 39 39 37 36 35 32 31 31 32 28 27 26 25 30 27 27 26
17 16 23 13 14 13 14 14 5 6 4 4 4 6 3 11 11 6 5 5 12 19 29 34 33 40 40 40 41 41 39 39 36 36 33 31 31 30 27 29 29 29 28 29
16 21 20 17 14 19 14 15 17 7 10 5 7 13 10 8 5 4 3 1 9 14 15 24 33 35 40 41 42 42 39 38 38 38 39 35 33 32 33 30 34 31 27 28
19 15 22 23 20 18 17 11 13 8 5 10 8 10 8 9 7 7 6 7 7 1 7 14 24 33 36 37 40 40 37 37 35 34 36 37 37 33 30 33 31 29 28 27
22 12 14 17 18 18 12 12 10 13 10 8 5 3 10 4 2 8 5 9 4 6 5 5 9 15 32 34 35 39 38 35 30 32 35 35 33 30 31 33 33 29 26 20
24 9 13 18 16 17 17 16 16 8 10 7 6 9 3 5 3 5 3 6 7 7 5 6 7 10 13 19 20 30 32 30 28 29 33 34 33 30 31 31 28 27 26 20
18 17 11 16 17 16 17 20 17 15 12 13 7 4 8 7 4 6 4 10 11 12 10 10 8 9 11 13 16 15 22 21 24 27 27 28 34 30 30 28 24 23 20 17
14 17 15 11 12 12 16 19 18 16 8 9 12 12 12 13 8 11 11 8 17 9 11 11 16 14 11 12 14 13 16 20 24 26 30 31 31 23 24 23 22 19 18 15
4 14 19 19 19 17 18 20 19 20 16 14 13 16 15 12 1 4 5 3 10 16 10 9 9 18 16 15 20 25 27 28 29 26 26 25 25 22 20 19 17 16 15 15
8 13 14 20 20 22 16 20 21 21 20 19 14 17 14 16 17 13 10 5 6 5 4 1 7 17 20 20 22 22 23 24 22 20 18 16 17 16 16 14 13 15 17 16
12 8 13 16 19 17 18 16 13 13 14 13 13 10 11 9 10 9 4 5 7 7 6 3 5 17 20 19 21 19 19 19 19 18 16 14 13 11 13 14 16 15 13 12
8 11 10 9 3 23 10 12 14 13 12 13 14 11 10 12 16 3 3 3 7 10 9 10 13 14 17 18 16 15 12 16 16 15 15 15 15 17 17 17 15 12 12 11
9 4 3 7 14 12 19 10 9 9 14 12 14 13 14 18 4 3 7 5 7 14 13 14 14 17 15 16 15 14 16 17 18 18 18 18 18 19 18 15 15 14 10 7
13 12 4 6 11 16 9 12 6 7 12 13 12 9 11 7 4 1 11 10 13 14 14 16 17 19 20 17 17 19 20 19 18 18 17 19 18 18 17 15 11 10 9 9
6 6 13 7 5 5 8 11 13 14 5 17 18 16 11 5 4 15 15 16 17 18 18 19 20 22 22 23 24 24 24 22 21 20 19 20 18 13 11 13 13 13 13 13
6 10 6 6 6 15 5 4 19 9 6 14 11 9 5 9 11 14 17 19 21 22 23 23 23 22 22 22 24 23 21 20 21 19 20 17 17 18 18 16 15 12 10 11
5 9 3 5 3 2 11 10 14 7 4 7 9 7 7 13 15 16 20 20 22 22 23 22 23 23 22 22 21 23 22 21 22 20 20 20 17 15 14 12 11 8 7 8
16 16 2 6 7 11 9 5 8 10 6 4 6 7 5 16 18 19 21 22 23 23 23 22 23 23 22 20 20 22 23 21 20 20 18 17 15 14 12 9 9 10 12 11
6 12 14 13 15 10 22 22 18 13 11 14 9 9 9 13 21 23 24 25 25 24 23 22 22 22 20 20 21 20 19 18 18 17 15 15 14 9 12 13 10 10 10 10
11 9 5 2 6 5 4 8 8 8 15 12 8 8 8 11 15 18 19 21 23 23 22 21 21 22 20 19 18 16 16 17 17 16 14 13 12 11 8 4 7 7 9 11
Wind_Direction
215 226 233 239 233 246 282 303 292 117 261 243 283 302 177 230 167 140 147 152 145 154 152 153 155 159 161 156 150 153 162 172 178 187 186 189 195 195 200 203 214 221 215 219
227 220 238 247 267 302 289 277 280 300 333 3 290 232 228 178 157 176 169 183 155 158 159 159 161 167 168 159 172 180 185 191 189 189 186 197 202 200 200 206 209 218 219 225
223 229 220 248 260 248 251 261 276 272 255 249 335 321 195 172 179 192 177 175 166 178 172 172 173 176 181 182 184 187 199 196 195 185 192 197 202 203 203 212 226 227 225 222
225 239 242 237 236 235 246 253 269 286 286 272 259 266 223 212 189 204 177 172 178 190 180 182 181 184 189 200 196 202 198 202 206 196 200 201 202 203 205 217 233 235 230 223
229 232 238 224 238 241 262 309 299 281 274 287 209 268 112 173 216 189 201 174 181 185 195 184 189 196 201 199 204 200 203 207 211 204 209 202 206 213 209 214 230 239 242 225
234 231 227 241 228 242 258 275 258 263 259 262 269 220 112 298 259 177 190 187 185 181 189 196 193 197 200 204 205 208 208 210 210 213 211 212 220 207 212 214 225 240 250 235
222 235 229 230 226 228 238 229 241 238 239 244 192 258 178 201 221 93 119 185 191 186 188 193 195 193 197 204 207 207 211 206 210 219 223 217 215 220 209 221 228 234 239 241
214 220 227 196 229 214 217 217 203 193 298 279 323 254 200 137 102 153 173 252 180 198 194 195 197 195 198 204 205 209 209 212 211 214 223 227 221 219 226 219 234 238 245 254
207 227 215 208 206 239 203 221 251 236 240 262 221 254 183 125 116 132 234 200 207 200 216 212 201 203 200 201 209 215 214 214 212 216 218 221 224 223 223 225 235 242 248 254
241 219 231 199 195 226 251 231 227 232 251 249 270 262 343 199 197 135 178 125 123 248 259 239 219 206 203 202 208 217 219 210 216 216 221 224 223 227 226 230 235 243 239 245
239 254 222 218 199 208 217 236 248 241 225 240 269 141 169 37 148 167 174 146 149 150 165 224 230 219 208 209 203 211 212 212 214 219 220 221 220 222 224 230 238 235 239 248
232 234 249 207 194 212 237 214 236 243 236 229 170 258 171 317 304 243 208 223 197 186 165 171 194 211 222 212 204 203 206 206 213 222 221 228 228 226 229 232 230 238 234 253
210 233 233 240 196 204 222 240 213 236 244 246 233 250 276 237 198 305 255 252 259 185 218 174 182 195 199 212 209 203 194 208 217 222 218 218 221 232 229 223 225 233 237 238
337 220 228 224 214 210 224 232 237 226 233 257 261 261 250 278 201 223 208 249 283 205 201 205 182 187 190 191 192 195 197 205 213 216 215 217 231 231 219 227 225 229 232 231
340 244 230 236 240 227 214 222 236 249 249 233 230 249 259 265 286 331 283 181 162 237 219 232 218 175 169 167 182 190 195 201 208 209 203 208 209 217 221 221 224 224 217 206
253 270 230 247 228 248 251 223 215 219 242 258 255 258 265 277 274 214 239 247 227 254 13 31 220 170 158 172 192 199 195 198 205 203 206 207 219 220 200 198 203 192 179 182
244 251 229 239 246 244 249 243 249 227 231 244 251 259 269 277 273 274 255 258 213 159 172 230 213 155 168 188 203 208 215 212 210 214 211 201 196 195 186 178 169 172 171 168
289 249 223 225 218 240 264 248 250 262 270 277 271 264 263 275 277 301 123 205 169 175 179 172 178 155 172 188 198 215 200 184 185 186 187 187 189 174 159 158 160 164 167 173
272 293 272 196 236 258 234 223 239 230 249 258 251 262 259 267 80 147 174 197 193 181 176 176 173 164 176 190 200 185 165 166 170 172 174 171 161 155 158 164 166 169 185 168
226 279 203 249 220 233 237 229 192 237 252 245 253 267 273 220 177 24 156 153 161 161 167 168 166 164 163 157 151 146 148 155 159 160 164 158 159 161 163 167 176 158 136 159
184 229 244 244 243 247 220 230 214 223 212 253 259 263 262 261 89 141 151 158 164 164 165 166 164 162 162 162 160 155 159 160 160 163 156 154 157 159 150 141 161 165 177 193
196 203 207 226 227 238 358 348 218 218 203 257 280 277 340 126 138 162 174 174 170 170 169 168 165 166 166 163 162 161 159 162 159 159 157 145 150 165 175 180 175 174 197 213
160 263 212 194 195 269 224 230 350 339 275 296 320 297 300 172 172 177 169 173 175 174 171 171 169 166 164 165 162 158 159 158 157 155 156 169 171 161 161 170 187 173 208 227
198 190 229 293 276 280 271 248 286 284 307 308 304 278 267 183 186 180 177 178 179 178 174 172 169 163 161 162 165 163 162 161 159 161 165 164 169 170 165 179 177 195 219 231
230 174 202 220 236 236 288 288 255 289 283 280 262 259 269 207 195 190 183 182 180 179 174 173 168 163 158 163 163 157 157 159 161 161 163 169 166 172 168 184 206 228 246 252
232 221 220 180 220 207 258 205 238 256 285 294 253 252 252 235 199 192 189 183 178 173 170 165 163 159 157 149 143 148 156 166 163 155 164 173 172 165 154 236 251 264 273 280